User: anonymous   Login
Location: Argonnex
(45.9500°N, 6.1333°E)
Time: 04:34:44
(UTC+00:00)
Language:

BREEZE-M DEB (TANK) - Orbit

View from above orbital plane
View from above orbital plane
View from above satellite
View from above satellite

Ground track
Ground track

The orbit data is extracted from the following two-line orbital elements,

1 31863U 07032B   23151.30679748  .00000592  00000-0  52671-3 0  9999
2 31863  45.9109 213.9747 4957446 168.7540 208.7206  5.53017256319613
Epoch (UTC): 31 May 2023 07:21:47
Eccentricity: 0.4957446
inclination: 45.9109°
perigee height: 433 km
apogee height: 13825 km
right ascension of ascending node: 213.9747°
argument of perigee: 168.7540°
revolutions per day: 5.53017256
mean anomaly at epoch: 208.7206°
orbit number at epoch: 31961

The dashed part of the orbit path shows where the satellite is in the earth's shadow,  

DLR